ARIANE 2 DEB, 33560

Orbit data source: Space-Track

ARIANE 2 DEB, 33560 is space debris in HEO originally from a launch on Fri, 27 Jan 1989 UTC launched from the French Guiana (FRGUI). Debris objects in space refer to the collection of defunct objects orbiting the Earth. Examples of debris include non-operational satellites, rocket bodies, and fragments generated from explosions, collisions, or faulty payload assembly.

Loading next visibility...
Identifier
33560, 1989-006BC
Orbit
HEO
Country
Flag of FRFR
Related business
Manufacturer
EADS/LV
Mission
Spacecraft
Bus & Motor
Unknown
Mass
Unknown
Launch date (UTC)
1989-01-27 (37 years ago)
Launch vehicle
Unknown
Launch site
French Guiana (FRGUI)
Object type
Payload
Rocket body
Debris
Shape & HBR
Unknown shape, 0.2 m
Radar Cross Section
Medium (>0.1 m² and <1 m²)

Expand to show TLE details & history
Last TLE update: 3 days ago

TLE from 3 days ago
0 ARIANE 2 DEB
1 33560U 89006BC  25289.27134235 -.00000115  00000-0 -34468-2 0  9999
2 33560  10.3771 109.3071 7082914 328.4615  96.9681  2.25164608175364
Epoch: 2025-10-16T06:30Z
TLE epoch observation values (Epoch: 2025-10-16T06:30:43.979Z)
Latitude
8.37917°
Longitude
113.00063°
Altitude
29,094.535 km
Speed
2.503 km/s
True Right ascension
15h 42m 52s
True Declination
8° 22' 09"
Sunlit
Object was in daylight at epoch
Visualization orbit readout
Latitude
Unknown
Longitude
Unknown
Altitude
Unknown
Speed
Unknown
Apparent Right ascension
Unknown
Apparent Declination
Unknown
Sunlit
N/A
Visualization observer readout
Local Sidereal Time
07:46:12
Azimuth
Unknown
Elevation
Unknown
Doppler factor
Unknown
Orbital elements
Apogee altitude
35,634.783 km
Perigee altitude
796.008 km
Semi-major axis
24,593.533 km
Eccentricity
0.70829
Inclination
10.3771°
RAAN
109.3071°
Arg. of periapsis
328.4615°
True anomaly
157.53258°
Mean anomaly
96.9681°
Eccentric anomaly
128.65814°
Mean motion
0.56275 °/min
Orbital period
639.72 mins
BSTAR
-0.0034468
Loading maneuver chart data...
Computing Atmospheric mass density...
Loading historical data...
Loading historical data...
Loading historical data...
Loading historical data...
Loading historical data...
Loading historical data...
Loading historical data...

Documentation

Showing up to 5 results
|